Weather History for Blue Canyon, CA

Change the Weather History Date:

Thursday, January 30, 2014

  Actual Average Record
Temperature  
Mean Temperature 36 °F -  
Max Temperature 39 °F 42 °F 67 °F (1984)
Min Temperature 32 °F 29 °F 14 °F (1950)
Degree Days  
Heating Degree Days 30    
Moisture  
Dew Point 31 °F    
Average Humidity 87    
Maximum Humidity 96    
Minimum Humidity 65    
Precipitation  
Precipitation 0.05 in - - ()
Sea Level Pressure  
Sea Level Pressure 29.85 in    
Wind  
Wind Speed 5 mph (North)    
Max Wind Speed 9 mph    
Max Gust Speed 18 mph    
Visibility 8 miles    
Events Snow    
Averages and records for this station are not official NWS values.
T = Trace of Precipitation, MM = Missing Value Source: NWS Daily Summary

Daily Weather History Graph

Daily Weather History Graph

Search for Another Location

Airport:

Trip Planner

Search our weather history database for the weather conditions in past years. The results will help you decide how hot, cold, wet, or windy it might be!

Date:

Astronomy

Jan. 30, 2014 Rise Set
Actual Time 7:11 AM PST 5:21 PM PST
Civil Twilight 6:43 AM PST 5:49 PM PST
Nautical Twilight 6:10 AM PST 6:21 PM PST
Astronomical Twilight 5:39 AM PST 6:53 PM PST
Moon 6:41 AM PST (1/30) 5:39 PM PST (1/30)
Length of Visible Light 11h 06m
Length of Day
10h 09m
Waning Crescent, 0% of the Moon is Illuminated
Jan 30
Waning Crescent
Jan 30
New
Feb 6
First Quarter
Feb 14
Full
Feb 22
Last Quarter

Hourly Weather History & Observations

Time (PST) Temp. Windchill Dew Point Humidity Pressure Visibility Wind Dir Wind Speed Gust Speed Precip Events Conditions
12:52 AM 35.1 °F 29.3 °F 32.0 °F 89% 29.93 in 3.0 mi NNE 6.9 mph - 0.03 in Snow Light Snow
1:35 AM 35.1 °F 30.1 °F 32.0 °F 89% 29.95 in 8.0 mi Variable 5.8 mph - 0.01 in Snow Light Snow
1:52 AM 35.1 °F 31.0 °F 32.0 °F 89% 29.89 in 7.0 mi ENE 4.6 mph - 0.01 in Snow Light Snow
2:18 AM 34.0 °F 28.0 °F 30.9 °F 89% 29.94 in 2.0 mi Variable 6.9 mph - 0.00 in Snow Light Snow
2:52 AM 34.0 °F 26.6 °F 30.9 °F 89% 29.88 in 1.8 mi NNE 9.2 mph 18.4 mph 0.00 in Snow Light Snow
3:00 AM 34.0 °F 28.0 °F 30.9 °F 89% 29.93 in 3.0 mi NNE 6.9 mph - 0.00 in Snow Light Snow
3:39 AM 34.0 °F 26.6 °F 30.9 °F 89% 29.92 in 8.0 mi NNE 9.2 mph - 0.01 in Snow Light Snow
3:52 AM 34.0 °F 28.8 °F 30.9 °F 89% 29.86 in 8.0 mi NE 5.8 mph - 0.01 in Snow Light Snow
3:59 AM 34.0 °F 29.8 °F 30.9 °F 89% 29.89 in 6.0 mi Variable 4.6 mph - 0.00 in Snow Light Snow
4:52 AM 34.0 °F 29.8 °F 30.9 °F 89% 29.83 in 10.0 mi Variable 4.6 mph - 0.00 in   Overcast
5:52 AM 35.1 °F 31.0 °F 30.0 °F 82% 29.81 in 10.0 mi Variable 4.6 mph - N/A   Overcast
6:52 AM 35.1 °F 30.1 °F 28.9 °F 78% 29.79 in 10.0 mi ENE 5.8 mph - N/A   Overcast
7:52 AM 34.0 °F 29.8 °F 30.0 °F 85% 29.82 in 10.0 mi ENE 4.6 mph - N/A   Mostly Cloudy
8:52 AM 35.1 °F - 28.9 °F 78% 29.84 in 10.0 mi Calm Calm - N/A   Overcast
9:04 AM 35.1 °F 32.2 °F 30.9 °F 85% 29.88 in 10.0 mi NNW 3.5 mph - N/A   Overcast
9:15 AM 35.1 °F - 33.1 °F 92% 29.88 in 10.0 mi Calm Calm - N/A   Overcast
9:27 AM 35.1 °F - 33.1 °F 92% 29.89 in 6.0 mi Calm Calm - 0.00 in Snow Light Snow
9:45 AM 36.0 °F 31.1 °F 30.9 °F 82% 29.89 in 10.0 mi North 5.8 mph - 0.00 in   Overcast
9:52 AM 36.0 °F 31.1 °F 30.0 °F 79% 29.86 in 8.0 mi North 5.8 mph - 0.00 in   Overcast
10:52 AM 37.0 °F 33.3 °F 32.0 °F 82% 29.84 in 10.0 mi Variable 4.6 mph - N/A   Overcast
11:52 AM 39.0 °F 36.8 °F 30.0 °F 70% 29.83 in 10.0 mi Variable 3.5 mph - N/A   Overcast
12:52 PM 39.9 °F 35.8 °F 28.9 °F 65% 29.82 in 10.0 mi Variable 5.8 mph - N/A   Mostly Cloudy
1:52 PM 39.9 °F 35.1 °F 30.9 °F 70% 29.80 in 10.0 mi SSW 6.9 mph - N/A   Overcast
2:31 PM 39.9 °F 35.1 °F 30.0 °F 68% 29.83 in 10.0 mi Variable 6.9 mph - N/A   Overcast
2:52 PM 39.0 °F 32.8 °F 30.0 °F 70% 29.81 in 10.0 mi SW 9.2 mph - N/A   Mostly Cloudy
3:52 PM 37.9 °F 32.7 °F 32.0 °F 79% 29.81 in 10.0 mi SSW 6.9 mph - N/A   Mostly Cloudy
4:34 PM 37.0 °F 33.3 °F 34.0 °F 89% 29.83 in 10.0 mi SW 4.6 mph - N/A   Overcast
4:52 PM 36.0 °F 32.1 °F 34.0 °F 93% 29.83 in 10.0 mi WSW 4.6 mph - N/A   Overcast
5:52 PM 35.1 °F - 33.1 °F 92% 29.83 in 10.0 mi Calm Calm - N/A   Overcast
6:25 PM 35.1 °F - 33.1 °F 92% 29.84 in 3.0 mi Calm Calm - N/A   Overcast
6:27 PM 35.1 °F - 34.0 °F 96% 29.84 in 1.8 mi Calm Calm - N/A   Overcast
6:40 PM 35.1 °F - 33.1 °F 92% 29.84 in 4.0 mi Calm Calm - N/A   Overcast
6:48 PM 35.6 °F - 32.0 °F 87% 29.84 in 10.0 mi Calm Calm - N/A   Overcast
6:52 PM 35.1 °F 32.2 °F 32.0 °F 89% 29.84 in 10.0 mi SSW 3.5 mph - N/A   Overcast
7:52 PM 35.1 °F - 33.1 °F 92% 29.85 in 10.0 mi Calm Calm - N/A   Overcast
7:59 PM 35.1 °F - 33.1 °F 92% 29.85 in 10.0 mi Calm Calm - N/A   Overcast
8:21 PM 34.0 °F - 32.0 °F 92% 29.85 in 8.0 mi Calm Calm - N/A   Overcast
8:52 PM 34.0 °F - 33.1 °F 96% 29.85 in 6.0 mi Calm Calm - N/A   Overcast
9:31 PM 34.0 °F 31.0 °F 30.9 °F 89% 29.85 in 10.0 mi North 3.5 mph - 0.00 in Snow Light Snow
9:52 PM 33.1 °F 30.0 °F 30.0 °F 89% 29.85 in 10.0 mi Variable 3.5 mph - 0.00 in   Overcast
10:22 PM 33.1 °F - 30.0 °F 89% 29.85 in 10.0 mi Calm Calm - N/A   Overcast
10:29 PM 32.0 °F - 30.0 °F 92% 29.85 in 10.0 mi Calm Calm - N/A   Overcast
10:37 PM 32.0 °F - 30.9 °F 96% 29.85 in 10.0 mi Calm Calm - N/A   Overcast
10:49 PM 32.0 °F - 30.2 °F 93% 29.85 in 10.0 mi Calm Calm - N/A   Overcast
10:52 PM 32.0 °F - 30.0 °F 92% 29.85 in 10.0 mi Calm Calm - N/A   Overcast
11:52 PM 32.0 °F - 30.9 °F 96% 29.83 in 8.0 mi Calm Calm - N/A   Overcast